User: anonymous   Login
Location: Kunchanapalle
(16.4623°N, 80.6176°E)
Time: 01:42:53
(UTC+00:00)
Language:

Cosmos 883 Rocket - Orbit

View from above orbital plane
View from above orbital plane
View from above satellite
View from above satellite

Ground track
Ground track

The orbit data is extracted from the following two-line orbital elements,

1  9613U 76122B   20302.54713560 +.00000129 +00000-0 +11351-3 0  9991
2  9613 082.9513 319.1481 0031629 083.5274 276.9483 13.77466507204311
Epoch (UTC): 28 October 2020 13:07:52
Eccentricity: 0.0031629
inclination: 82.9513°
perigee height: 949 km
apogee height: 996 km
right ascension of ascending node: 319.1481°
argument of perigee: 83.5274°
revolutions per day: 13.77466507
mean anomaly at epoch: 276.9483°
orbit number at epoch: 20431

The dashed part of the orbit path shows where the satellite is in the earth's shadow,  

DLR